Location: Bear Valley
(38.4650°N, 120.0390°W)
Time: 19:46:03
(UTC-08:00)

OTV 5 (USA 277) - Visible Passes

Search period start: 21 November 2017 00:00
Search period end: 01 December 2017 00:00
Orbit: 404 x 417 km, 43.0° (Epoch: 07 September)

Date Brightness Start Highest point End Pass type
(mag) Time Alt. Az. Time Alt. Az. Time Alt. Az.
21 Nov ? 04:17:14 14° ESE 04:17:14 14° ESE 04:17:48 10° ESE visible
21 Nov ? 05:50:01 13° WSW 05:51:31 17° SW 05:53:44 10° S visible
22 Nov ? 05:01:37 22° S 05:01:37 22° S 05:03:23 10° SSE visible
29 Nov ? 18:54:07 10° SSW 18:54:42 14° SSW 18:54:42 14° SSW visible
30 Nov ? 18:03:40 10° S 18:06:07 19° SE 18:06:17 19° SE visible
